[[{"header":{"parameterUnit":"m.s-1","parameterCategory":2,"la1":30.2991,"la2":30.254,"lo1":-89.0895,"lo2":-89.0444,"dy":0.0017,"dx":0.0017,"nx":28,"ny":28,"refTime":"2024-10-07T09:00:00:Z","depth":"0","parameterNumber":2,"parameterNumberName":"U-component_of_CURRENTS"},"data":[0,0,0,0,0,0,0,0,0,0,0,0,0,0,0,0,0,0,0,0,0,0,0,0,0,0,0,0,0,0,0,0,0,0,0,0,0,0,0,0,0,0,0,0,0,0,0,0,0,0,0,0,0,0,0,0,0,0,0.2447,0.2447,0,0.2452,0.2452,0.2452,0.2435,0.2435,0.2434,0.2434,0.2412,0.2412,0.2412,0,0,0,0,0,0,0,0,0,0,0,0,0,0.2429,0.243,0.2447,0.2447,0.2447,0.2452,0.2452,0.2452,0.2435,0.2435,0.2434,0.2434,0.2412,0.2412,0.2412,0,0,0,0,0,0,0,0,0,0,0,0,0,0.2434,0.243,0.2447,0.2441,0.2441,0.2452,0.2452,0.2452,0.2435,0.2435,0.2434,0.2434,0.2413,0.2412,0.2412,0.242,0,0,0.2411,0.241,0,0,0,0,0,0,0,0,0.2434,0.2435,0.2442,0.2441,0.2441,0.2444,0.2438,0.2441,0.2435,0.2435,0.2434,0.2434,0.2422,0.2421,0.2421,0.2419,0.2418,0.2411,0.241,0.241,0.241,0,0,0,0,0,0,0,0.2434,0.2434,0.2447,0.2442,0.2442,0.2441,0.2441,0.2439,0.243,0.2435,0.2435,0.2438,0.2421,0.2421,0.242,0.2417,0.2411,0.241,0.241,0.241,0.2447,0.2448,0,0,0,0,0,0,0.2437,0.2434,0.2447,0.2447,0.2438,0.2442,0.2441,0.2442,0.243,0.2429,0.2439,0.2438,0.2422,0.2421,0.2419,0.2447,0.241,0.241,0.241,0.2446,0.2447,0.2449,0,0,0,0,0,0,0.2437,0.2438,0.2447,0.2443,0.2444,0.2443,0.2444,0.2443,0.2446,0.2433,0.2431,0.2444,0.2422,0.242,0.2427,0.2445,0.241,0.2409,0.2444,0.2446,0.2448,0.2489,0,0,0,0,0,0,0.2436,0.2438,0.244,0.2443,0.2444,0.246,0.2444,0.2443,0.245,0.2448,0.2437,0.2434,0.2421,0.2427,0.2426,0.2444,0.2409,0.2443,0.2445,0.2447,0.2486,0.2492,0.2497,0,0,0,0,0,0.2435,0.2441,0.244,0.2442,0.2447,0.2461,0.2461,0.2457,0.245,0.2457,0.2451,0.2434,0.2441,0.2428,0.2426,0.2444,0.2442,0.2445,0.2447,0.2484,0.2491,0.2497,0,0,0,0,0,0,0.2433,0.244,0.2439,0.2446,0.2456,0.2458,0.2465,0.2463,0.2464,0.2462,0.2446,0.2444,0.246,0.2449,0.2434,0.2464,0.244,0.2443,0.2469,0.2476,0.2481,0.2494,0.2409,0,0,0,0,0,0.2436,0.2441,0.245,0.2456,0.2463,0.2466,0.2471,0.2471,0.2472,0.2472,0.2465,0.2463,0.2471,0.2469,0.2472,0.2483,0.2494,0.2496,0.2502,0.2506,0.2518,0.2552,0.2562,0.2458,0.2458,0.2458,0,0,0.2436,0.2441,0.2443,0.2456,0.2462,0.2479,0.2467,0.248,0.2493,0.247,0.2483,0.2483,0.248,0.2497,0.2503,0.2487,0.2543,0.251,0.2514,0.2523,0.2556,0.2567,0.2576,0.246,0.2459,0.2459,0,0,0.2442,0.2446,0.2455,0.2467,0.2483,0.249,0.2497,0.2506,0.251,0.2524,0.2517,0.2532,0.253,0.2539,0.2542,0.2582,0.2575,0.2579,0.2612,0.2645,0.2654,0.2662,0.2694,0.2704,0.2577,0.2577,0.2577,0,0.2442,0.2454,0.2461,0.2477,0.249,0.2498,0.2516,0.2527,0.2536,0.2547,0.2533,0.2561,0.2555,0.2589,0.2602,0.2595,0.2611,0.2584,0.2653,0.2661,0.2668,0.2698,0.2709,0.258,0.2579,0.2579,0.2579,0,0.2459,0.247,0.248,0.2503,0.2519,0.2537,0.2556,0.2571,0.2576,0.2588,0.2621,0.2621,0.2638,0.264,0.2631,0.2683,0.2677,0.2659,0.2635,0.2681,0.271,0.2721,0.2583,0.2582,0.2581,0.2581,0,0,0.2447,0.2483,0.2485,0.2497,0.2534,0.2544,0.2581,0.2613,0.2643,0.2651,0.2689,0.2705,0.271,0.2715,0.2712,0.2738,0.2801,0.2721,0.2722,0.2751,0.2879,0.2862,0.2872,0.2793,0.2795,0.2796,0.288,0,0.2456,0.2482,0.2505,0.2533,0.2549,0.2578,0.2612,0.2644,0.2675,0.2715,0.273,0.2765,0.2738,0.2754,0.2777,0.2802,0.2831,0.2781,0.2832,0.2834,0.2811,0.2884,0.2809,0.2876,0.289,0.2892,0.2893,0,0.246,0.2477,0.2504,0.2545,0.2557,0.2579,0.2637,0.2671,0.2738,0.2768,0.281,0.2826,0.2876,0.2841,0.2907,0.2876,0.2885,0.2896,0.2899,0.2877,0.2837,0.2831,0.2894,0.2862,0.2909,0.2908,0.2907,0,0.2432,0.2474,0.2491,0.2505,0.2558,0.2577,0.2611,0.2681,0.2726,0.281,0.2852,0.2907,0.2943,0.2967,0.2985,0.2954,0.3056,0.3013,0.3007,0.3005,0.2949,0.294,0.2986,0.3063,0.3063,0.3063,0.3062,0,0.2425,0.2436,0.2476,0.2483,0.2515,0.2559,0.2611,0.2665,0.2754,0.2812,0.2873,0.2931,0.2977,0.3029,0.3029,0.3064,0.3092,0.3039,0.3036,0.2962,0.2952,0.2926,0.2895,0.3066,0.3065,0.3065,0.3064,0,0.2388,0.2415,0.2435,0.2483,0.25,0.2521,0.2604,0.2646,0.2741,0.2822,0.2852,0.2971,0.3049,0.3088,0.3151,0.3125,0.3083,0.3153,0.3066,0.3051,0.2995,0.2967,0.2877,0.2778,0.3165,0.3166,0.3166,0,0.2369,0.2376,0.2421,0.2433,0.2452,0.2493,0.2526,0.2627,0.2682,0.2835,0.287,0.2991,0.3062,0.3168,0.3177,0.3206,0.3096,0.3128,0.3052,0.301,0.2977,0.2835,0.2746,0.2997,0.2996,0.2995,0.2994,0,0.2335,0.2352,0.2367,0.2394,0.2418,0.245,0.2506,0.2552,0.2669,0.2748,0.2861,0.294,0.3075,0.31,0.3159,0.3152,0.3,0.3108,0.3088,0.2882,0.2705,0.2602,0.2926,0.2985,0.2986,0.2987,0.2987,0.2988,0.2306,0.2307,0.2328,0.2346,0.237,0.2389,0.2393,0.2468,0.2542,0.2639,0.2775,0.2865,0.2996,0.3087,0.3064,0.3021,0.2949,0.2942,0.2924,0.2794,0.2655,0.2965,0.3001,0.3002,0.3003,0.3004,0.3004,0,0.2259,0.2264,0.228,0.2285,0.2276,0.2317,0.2359,0.2352,0.2392,0.2536,0.2623,0.2773,0.2842,0.2921,0.2962,0.287,0.2698,0.2794,0.259,0.2518,0.2841,0.2793,0.2756,0.2756,0.2756,0.2756,0.2756,0.2756,0.2235,0.2221,0.2224,0.2183,0.2185,0.2143,0.2145,0.2161,0.2238,0.233,0.2425,0.2541,0.2785,0.2934,0.2895,0.2799,0.2565,0.2457,0.2413,0.269,0.2702,0.2713,0.2663,0.2599,0.2599,0.1985,0.198,0.1977]},{"header":{"parameterUnit":"m.s-1","parameterCategory":2,"la1":30.2991,"la2":30.254,"lo1":-89.0895,"lo2":-89.0444,"dy":0.0017,"dx":0.0017,"nx":28,"ny":28,"refTime":"2024-10-07T09:00:00:Z","depth":"0","parameterNumber":3,"parameterNumberName":"V-component_of_CURRENTS"},"data":[0,0,0,0,0,0,0,0,0,0,0,0,0,0,0,0,0,0,0,0,0,0,0,0,0,0,0,0,0,0,0,0,0,0,0,0,0,0,0,0,0,0,0,0,0,0,0,0,0,0,0,0,0,0,0,0,0,0,-0.008,-0.008,0,-0.0133,-0.0134,-0.0135,-0.0173,-0.0173,-0.0174,-0.0174,-0.0235,-0.0237,-0.0238,0,0,0,0,0,0,0,0,0,0,0,0,0,-0.005,-0.0051,-0.008,-0.008,-0.0081,-0.0133,-0.0134,-0.0135,-0.0173,-0.0173,-0.0174,-0.0174,-0.0235,-0.0237,-0.0238,0,0,0,0,0,0,0,0,0,0,0,0,0,-0.0081,-0.0051,-0.008,-0.0105,-0.0107,-0.0133,-0.0134,-0.0135,-0.0173,-0.0173,-0.0174,-0.0174,-0.0234,-0.0236,-0.0239,-0.0249,0,0,-0.0246,-0.0247,0,0,0,0,0,0,0,0,-0.0079,-0.0083,-0.01,-0.0103,-0.0106,-0.0145,-0.0146,-0.0173,-0.0173,-0.015,-0.0174,-0.0174,-0.0204,-0.0209,-0.0222,-0.0252,-0.0255,-0.0246,-0.0247,-0.0248,-0.0249,0,0,0,0,0,0,0,-0.0077,-0.0081,-0.0103,-0.0101,-0.0104,-0.0126,-0.0131,-0.0152,-0.0178,-0.0152,-0.0155,-0.0157,-0.0206,-0.0219,-0.0223,-0.0256,-0.0246,-0.0248,-0.0249,-0.025,-0.0292,-0.0292,0,0,0,0,0,0,-0.0064,-0.0078,-0.0101,-0.0105,-0.009,-0.0126,-0.0132,-0.0134,-0.0177,-0.0183,-0.0157,-0.0159,-0.0215,-0.0221,-0.0226,-0.0225,-0.0248,-0.025,-0.0252,-0.0293,-0.0292,-0.0292,0,0,0,0,0,0,-0.0063,-0.0066,-0.0099,-0.0091,-0.0097,-0.0126,-0.0129,-0.0135,-0.0144,-0.018,-0.0187,-0.016,-0.0216,-0.0222,-0.0238,-0.0228,-0.0251,-0.0253,-0.0293,-0.0292,-0.0292,-0.0234,0,0,0,0,0,0,-0.0062,-0.0065,-0.0062,-0.009,-0.0097,-0.0106,-0.0129,-0.0136,-0.0145,-0.0148,-0.0185,-0.0191,-0.0216,-0.0234,-0.024,-0.0232,-0.0255,-0.0293,-0.0293,-0.0292,-0.0236,-0.0231,-0.0227,0,0,0,0,0,-0.0061,-0.0052,-0.0061,-0.0064,-0.0091,-0.0105,-0.0111,-0.0134,-0.0144,-0.0145,-0.0169,-0.019,-0.0235,-0.0235,-0.0242,-0.0235,-0.0293,-0.0293,-0.0292,-0.0238,-0.0232,-0.0227,0,0,0,0,0,0,-0.0038,-0.0056,-0.0066,-0.0064,-0.008,-0.0111,-0.0112,-0.0128,-0.0149,-0.015,-0.0186,-0.0194,-0.0205,-0.0228,-0.0227,-0.0246,-0.0268,-0.0269,-0.0224,-0.0219,-0.0215,-0.0197,-0.0257,0,0,0,0,0,-0.003,-0.0028,-0.0051,-0.0049,-0.0054,-0.0082,-0.009,-0.0105,-0.0126,-0.0136,-0.0162,-0.0189,-0.0209,-0.0219,-0.0243,-0.0251,-0.0276,-0.0252,-0.0247,-0.0243,-0.0234,-0.0266,-0.0264,-0.029,-0.029,-0.029,0,0,-0.0021,-0.003,-0.003,-0.0043,-0.0059,-0.0056,-0.0088,-0.0093,-0.0092,-0.0138,-0.0145,-0.0175,-0.0209,-0.0219,-0.0226,-0.0236,-0.0249,-0.0243,-0.0239,-0.0232,-0.0265,-0.0263,-0.0261,-0.029,-0.029,-0.029,0,0,0.0004,-0.0008,0.0003,-0.0005,-0.0019,-0.0034,-0.0031,-0.0058,-0.007,-0.0081,-0.0113,-0.0135,-0.0168,-0.0189,-0.0204,-0.019,-0.0226,-0.02,-0.0162,-0.0193,-0.0191,-0.0189,-0.0214,-0.0215,-0.0196,-0.0196,-0.0196,0,0.0018,0.0029,0.0004,0.0015,0.0016,-0.0018,-0.0001,-0.002,-0.0048,-0.0052,-0.0074,-0.0122,-0.0153,-0.0163,-0.0159,-0.0179,-0.0202,-0.0177,-0.0186,-0.0186,-0.0185,-0.0211,-0.0213,-0.0193,-0.0193,-0.0194,-0.0194,0,0.0051,0.0061,0.0068,0.0072,0.0068,0.0077,0.0054,0.0047,0.0027,0.0007,-0.0012,-0.0061,-0.0086,-0.0103,-0.0127,-0.0135,-0.0154,-0.0178,-0.0196,-0.0179,-0.0208,-0.0211,-0.0189,-0.019,-0.0191,-0.0191,0,0,0.0084,0.0091,0.0096,0.0111,0.0102,0.0106,0.011,0.0106,0.0117,0.0072,0.0077,0.0027,-0.0002,-0.0021,-0.0061,-0.009,-0.0109,-0.0126,-0.0129,-0.0145,-0.0174,-0.0184,-0.0189,-0.0136,-0.0137,-0.0137,-0.0195,0,0.0122,0.0159,0.015,0.0188,0.0206,0.0182,0.0189,0.0179,0.0164,0.0156,0.0099,0.0085,0.003,0.002,-0.0019,-0.0084,-0.0116,-0.0091,-0.0195,-0.0197,-0.0204,-0.0193,-0.0175,-0.0225,-0.0198,-0.0199,-0.0199,0,0.0164,0.0184,0.0228,0.0251,0.0257,0.0269,0.0285,0.0292,0.027,0.0255,0.0226,0.0179,0.0134,0.008,-0.0023,-0.0006,-0.0081,-0.014,-0.0144,-0.0174,-0.0213,-0.024,-0.0233,-0.0368,-0.0205,-0.0204,-0.0204,0,0.0208,0.0242,0.0282,0.0289,0.0304,0.0317,0.0326,0.0321,0.0346,0.0323,0.0333,0.0259,0.0232,0.0126,0.0004,-0.001,-0.0114,-0.015,-0.0232,-0.0234,-0.0249,-0.0252,-0.0378,-0.0225,-0.0225,-0.0225,-0.0225,0,0.0256,0.0288,0.0304,0.0325,0.0377,0.0366,0.0419,0.0416,0.0428,0.0469,0.039,0.0402,0.0243,0.0162,0.0035,-0.01,-0.0093,-0.0219,-0.0248,-0.0229,-0.0228,-0.0371,-0.0464,-0.0227,-0.0227,-0.0226,-0.0226,0,0.0301,0.0309,0.0358,0.0384,0.0399,0.0437,0.0491,0.053,0.0527,0.0578,0.0575,0.0513,0.0412,0.0247,0.0081,-0.0045,-0.0273,-0.0236,-0.0198,-0.0221,-0.0425,-0.0514,-0.069,-0.0778,-0.0334,-0.0335,-0.0336,0,0.0327,0.0356,0.0408,0.0446,0.0461,0.0516,0.056,0.0581,0.0637,0.0654,0.0689,0.0607,0.0575,0.0327,0.0089,-0.0133,-0.029,-0.0275,-0.0302,-0.0428,-0.055,-0.0621,-0.0688,-0.0303,-0.0303,-0.0303,-0.0303,0,0.038,0.0394,0.0435,0.0513,0.0567,0.064,0.0706,0.0766,0.0797,0.0839,0.0883,0.0859,0.0626,0.0423,0.0108,-0.0062,-0.0387,-0.0285,-0.043,-0.0544,-0.0616,-0.0716,-0.0272,-0.0304,-0.0304,-0.0304,-0.0304,-0.0304,0.042,0.0459,0.0512,0.0589,0.0658,0.075,0.0819,0.09,0.0995,0.1071,0.104,0.1042,0.073,0.0315,0.006,-0.0381,-0.0411,-0.0506,-0.0605,-0.0666,-0.075,-0.0303,-0.0359,-0.0359,-0.036,-0.036,-0.036,0,0.047,0.0513,0.0586,0.0675,0.0758,0.0785,0.0909,0.0985,0.1106,0.1188,0.1231,0.1093,0.0708,0.0289,-0.0293,-0.0617,-0.0768,-0.0811,-0.0912,-0.0968,-0.0573,-0.0568,-0.0654,-0.0654,-0.0654,-0.0654,-0.0654,-0.0654,0.0497,0.057,0.0605,0.0743,0.0809,0.0922,0.0995,0.111,0.1202,0.1298,0.1317,0.1302,0.0989,-0.0024,-0.0735,-0.0922,-0.119,-0.1246,-0.1392,-0.1115,-0.1094,-0.1073,-0.109,-0.1283,-0.1284,-0.1733,-0.1738,-0.1741]}],[{"header":{"parameterUnit":"m.s-1","parameterCategory":2,"la1":30.2991,"la2":30.254,"lo1":-89.0895,"lo2":-89.0444,"dy":0.0017,"dx":0.0017,"nx":28,"ny":28,"refTime":"2024-10-07T09:00:00:Z","depth":"2","parameterNumber":2,"parameterNumberName":"U-component_of_CURRENTS"},"data":[0,0,0,0,0,0,0,0,0,0,0,0,0,0,0,0,0,0,0,0,0,0,0,0,0,0,0,0,0,0,0,0,0,0,0,0,0,0,0,0,0,0,0,0,0,0,0,0,0,0,0,0,0,0,0,0,0,0,0.2404,0.2404,0,0.241,0.241,0.241,0.2399,0.2398,0.2398,0.2398,0.2383,0.2383,0.2383,0,0,0,0,0,0,0,0,0,0,0,0,0,0.2385,0.2385,0.2403,0.2404,0.2404,0.241,0.241,0.241,0.2399,0.2398,0.2398,0.2398,0.2383,0.2383,0.2383,0,0,0,0,0,0,0,0,0,0,0,0,0,0.2391,0.2385,0.2403,0.24,0.24,0.241,0.241,0.241,0.2399,0.2398,0.2398,0.2398,0.2383,0.2383,0.2383,0.2388,0,0,0.2382,0.2382,0,0,0,0,0,0,0,0,0.2391,0.2391,0.24,0.2401,0.24,0.2405,0.2399,0.2402,0.2399,0.2397,0.2398,0.2397,0.239,0.2389,0.2389,0.2387,0.2387,0.2382,0.2382,0.2382,0.2382,0,0,0,0,0,0,0,0.239,0.2391,0.2404,0.2401,0.2401,0.24,0.2401,0.2399,0.2394,0.2397,0.2397,0.2401,0.2389,0.2389,0.2388,0.2387,0.2382,0.2382,0.2381,0.2381,0.2422,0.2423,0,0,0,0,0,0,0.2393,0.2391,0.2404,0.2405,0.2397,0.2401,0.2401,0.2402,0.2394,0.2393,0.2401,0.24,0.239,0.2389,0.2388,0.2419,0.2382,0.2381,0.2381,0.2421,0.2422,0.2424,0,0,0,0,0,0,0.2393,0.2394,0.2404,0.2399,0.2401,0.2402,0.2403,0.2403,0.2409,0.2398,0.2396,0.2409,0.2389,0.2388,0.2398,0.2417,0.2381,0.2381,0.2419,0.2421,0.2423,0.2465,0,0,0,0,0,0,0.2392,0.2394,0.2398,0.24,0.2401,0.2417,0.2404,0.2403,0.2412,0.2411,0.2403,0.2401,0.2389,0.2398,0.2397,0.2416,0.2381,0.2418,0.242,0.2422,0.2462,0.2468,0.2474,0,0,0,0,0,0.2391,0.2398,0.2398,0.24,0.2406,0.2418,0.2419,0.2417,0.2413,0.242,0.2417,0.2402,0.2413,0.2399,0.2398,0.2417,0.2417,0.2419,0.2422,0.246,0.2467,0.2473,0,0,0,0,0,0,0.2391,0.2397,0.2397,0.2405,0.2415,0.2417,0.2425,0.2424,0.2428,0.2428,0.2414,0.2412,0.2431,0.242,0.2405,0.2437,0.2414,0.2416,0.2443,0.245,0.2455,0.2467,0.2381,0,0,0,0,0,0.2394,0.24,0.2408,0.2415,0.2422,0.2426,0.2431,0.2433,0.2436,0.2437,0.2432,0.2432,0.2441,0.2442,0.2445,0.2458,0.2467,0.2472,0.2478,0.2482,0.2493,0.2526,0.2535,0.2433,0.2433,0.2433,0,0,0.2395,0.24,0.2403,0.2416,0.2423,0.2438,0.2428,0.2442,0.2456,0.2435,0.2451,0.2452,0.2451,0.2469,0.2476,0.2461,0.2518,0.2486,0.249,0.2498,0.253,0.254,0.2549,0.2435,0.2434,0.2434,0,0,0.2402,0.2408,0.2417,0.2429,0.2446,0.2452,0.246,0.2469,0.2475,0.2491,0.2486,0.2502,0.2503,0.2513,0.2516,0.2556,0.255,0.2556,0.2589,0.262,0.2629,0.2637,0.2666,0.2676,0.2554,0.2554,0.2554,0,0.2404,0.2416,0.2423,0.2439,0.2452,0.2461,0.2479,0.249,0.2501,0.2514,0.2502,0.2532,0.2528,0.2563,0.2577,0.257,0.2585,0.256,0.2628,0.2636,0.2643,0.2671,0.2681,0.2557,0.2556,0.2556,0.2556,0,0.242,0.2433,0.2443,0.2465,0.2482,0.2499,0.2519,0.2536,0.2543,0.2555,0.259,0.2592,0.261,0.2614,0.2605,0.2658,0.2652,0.2634,0.2609,0.2656,0.2682,0.2693,0.256,0.2559,0.2558,0.2558,0,0,0.2411,0.2446,0.2448,0.246,0.2497,0.2507,0.2544,0.2577,0.2607,0.2618,0.2657,0.2675,0.2681,0.2688,0.2686,0.2711,0.2773,0.2696,0.2696,0.2723,0.2848,0.2824,0.2833,0.2766,0.2768,0.2769,0.2848,0,0.242,0.2446,0.2468,0.2497,0.2512,0.2541,0.2575,0.2607,0.2639,0.268,0.2696,0.2733,0.2708,0.2727,0.275,0.2774,0.2802,0.2754,0.2801,0.2803,0.2774,0.2844,0.2594,0.2642,0.2857,0.2859,0.286,0,0.2425,0.2442,0.2469,0.251,0.2521,0.2544,0.2601,0.2636,0.2702,0.2733,0.2776,0.2793,0.2843,0.2811,0.2875,0.2846,0.2855,0.2865,0.2867,0.2838,0.2798,0.263,0.2652,0.2877,0.2876,0.2875,0.2873,0,0.2399,0.244,0.2458,0.2472,0.2523,0.2544,0.2578,0.2647,0.2691,0.2775,0.2817,0.2872,0.2909,0.2932,0.295,0.2922,0.3017,0.2976,0.2963,0.2961,0.2755,0.2732,0.3024,0.3024,0.3024,0.3024,0.3023,0,0.2393,0.2405,0.2445,0.2452,0.2485,0.2528,0.2581,0.2635,0.2722,0.2778,0.284,0.2894,0.2942,0.2991,0.2991,0.302,0.3051,0.2993,0.2989,0.2764,0.2742,0.2944,0.2934,0.3027,0.3026,0.3025,0.3025,0,0.2358,0.2385,0.2406,0.2454,0.2471,0.2494,0.2576,0.2617,0.2711,0.279,0.2821,0.2934,0.3007,0.3045,0.3104,0.3077,0.3103,0.3098,0.2838,0.2802,0.3014,0.3005,0.3101,0.3101,0.3101,0.3101,0.3101,0,0.234,0.2348,0.2394,0.2406,0.2426,0.2469,0.2502,0.2601,0.2654,0.2801,0.2834,0.295,0.3009,0.3105,0.3085,0.3102,0.3131,0.2878,0.2781,0.3041,0.3027,0.3018,0.3009,0.2521,0.2516,0.2512,0.2509,0,0.2308,0.2326,0.2341,0.2369,0.2395,0.2426,0.2482,0.2524,0.2638,0.2711,0.2814,0.2882,0.2981,0.2901,0.2942,0.2909,0.2857,0.2803,0.3141,0.2552,0.2503,0.2487,0.2495,0.2474,0.2478,0.248,0.2482,0.2484,0.228,0.2282,0.2304,0.2322,0.2348,0.2364,0.2367,0.2428,0.2493,0.2553,0.2691,0.2693,0.273,0.2676,0.2604,0.2542,0.2738,0.2589,0.2596,0.2608,0.254,0.2495,0.2451,0.2454,0.2457,0.2459,0.2462,0,0.2231,0.2241,0.2256,0.2263,0.2247,0.2296,0.2333,0.2296,0.2312,0.2384,0.2435,0.2254,0.2225,0.2252,0.2115,0.214,0.2068,0.204,0.1905,0.1943,0.1977,0.187,0.1606,0.1603,0.1601,0.1598,0,0,0.2208,0.2191,0.2193,0.2148,0.2155,0.2099,0.2098,0.2056,0.2063,0.201,0.1982,0.2124,0.2206,0.1872,0.1841,0.1696,0.1798,0.163,0.2322,0.2204,0.2232,0.2312,0.2195,0,0,0,0,0]},{"header":{"parameterUnit":"m.s-1","parameterCategory":2,"la1":30.2991,"la2":30.254,"lo1":-89.0895,"lo2":-89.0444,"dy":0.0017,"dx":0.0017,"nx":28,"ny":28,"refTime":"2024-10-07T09:00:00:Z","depth":"2","parameterNumber":3,"parameterNumberName":"V-component_of_CURRENTS"},"data":[0,0,0,0,0,0,0,0,0,0,0,0,0,0,0,0,0,0,0,0,0,0,0,0,0,0,0,0,0,0,0,0,0,0,0,0,0,0,0,0,0,0,0,0,0,0,0,0,0,0,0,0,0,0,0,0,0,0,0.0023,0.0023,0,-0.0028,-0.0029,-0.003,-0.007,-0.007,-0.0071,-0.0071,-0.0133,-0.0135,-0.0136,0,0,0,0,0,0,0,0,0,0,0,0,0,0.005,0.005,0.0023,0.0023,0.0022,-0.0028,-0.0029,-0.003,-0.007,-0.007,-0.0071,-0.0071,-0.0133,-0.0134,-0.0136,0,0,0,0,0,0,0,0,0,0,0,0,0,0.0021,0.005,0.0023,-0.0002,-0.0005,-0.0028,-0.0029,-0.003,-0.007,-0.007,-0.0071,-0.0071,-0.0132,-0.0134,-0.0136,-0.0144,0,0,-0.0143,-0.0144,0,0,0,0,0,0,0,0,0.0022,0.0019,0.0002,-0.0001,-0.0004,-0.0042,-0.0043,-0.0068,-0.007,-0.0047,-0.0071,-0.0071,-0.0102,-0.0107,-0.0118,-0.0147,-0.0149,-0.0143,-0.0145,-0.0146,-0.0146,0,0,0,0,0,0,0,0.0024,0.0021,0.0001,0.0002,-0.0002,-0.0024,-0.0028,-0.0048,-0.0074,-0.0049,-0.0052,-0.0055,-0.0104,-0.0116,-0.012,-0.015,-0.0143,-0.0145,-0.0147,-0.0147,-0.0188,-0.0187,0,0,0,0,0,0,0.0037,0.0023,0.0003,-0.0001,0.0011,-0.0024,-0.0029,-0.0031,-0.0074,-0.008,-0.0054,-0.0056,-0.0112,-0.0118,-0.0122,-0.0123,-0.0146,-0.0148,-0.0149,-0.0188,-0.0188,-0.0187,0,0,0,0,0,0,0.0038,0.0036,0.0005,0.0012,0.0006,-0.0024,-0.0025,-0.0031,-0.0043,-0.0077,-0.0084,-0.0059,-0.0113,-0.0119,-0.0135,-0.0126,-0.0149,-0.0151,-0.0188,-0.0188,-0.0188,-0.0131,0,0,0,0,0,0,0.0039,0.0036,0.0039,0.0013,0.0007,-0.0002,-0.0025,-0.0032,-0.0043,-0.0046,-0.0083,-0.0089,-0.0113,-0.0131,-0.0137,-0.013,-0.0152,-0.0189,-0.0188,-0.0188,-0.0134,-0.0129,-0.0125,0,0,0,0,0,0.004,0.0049,0.0039,0.0037,0.0011,-0.0002,-0.0007,-0.0031,-0.0042,-0.0043,-0.0068,-0.0088,-0.0132,-0.0133,-0.0139,-0.0133,-0.0189,-0.0188,-0.0188,-0.0135,-0.013,-0.0125,0,0,0,0,0,0,0.0061,0.0045,0.0034,0.0037,0.0022,-0.0007,-0.001,-0.0026,-0.0047,-0.0049,-0.0084,-0.0092,-0.0104,-0.0125,-0.0125,-0.0144,-0.0164,-0.0165,-0.0122,-0.0118,-0.0113,-0.0097,-0.0154,0,0,0,0,0,0.0068,0.007,0.0049,0.0051,0.0046,0.0019,0.001,-0.0004,-0.0025,-0.0035,-0.0062,-0.0088,-0.0107,-0.0117,-0.014,-0.0147,-0.0172,-0.0149,-0.0144,-0.0141,-0.0132,-0.0163,-0.0161,-0.0186,-0.0186,-0.0186,0,0,0.0076,0.0068,0.0068,0.0056,0.0041,0.0044,0.0012,0.0006,0.0008,-0.0038,-0.0045,-0.0075,-0.0107,-0.0117,-0.0124,-0.0133,-0.0147,-0.014,-0.0136,-0.013,-0.0163,-0.016,-0.0158,-0.0185,-0.0185,-0.0185,0,0,0.01,0.0087,0.0099,0.0091,0.0077,0.0063,0.0065,0.004,0.0027,0.0015,-0.0016,-0.0037,-0.007,-0.0089,-0.0103,-0.0089,-0.0125,-0.0099,-0.0063,-0.0093,-0.0091,-0.009,-0.0115,-0.0117,-0.0095,-0.0095,-0.0095,0,0.0111,0.0123,0.01,0.011,0.0111,0.0078,0.0094,0.0076,0.0049,0.0045,0.0022,-0.0025,-0.0055,-0.0063,-0.006,-0.0079,-0.0102,-0.0077,-0.0087,-0.0086,-0.0085,-0.0112,-0.0115,-0.0092,-0.0092,-0.0093,-0.0093,0,0.0143,0.0153,0.016,0.0164,0.0161,0.0169,0.0148,0.014,0.0119,0.0101,0.0081,0.0034,0.0009,-0.0007,-0.003,-0.0037,-0.0057,-0.0079,-0.0096,-0.0079,-0.0109,-0.0112,-0.0088,-0.0089,-0.009,-0.0091,0,0,0.0173,0.0182,0.0187,0.0201,0.0193,0.0198,0.0201,0.0199,0.0209,0.0164,0.0168,0.0121,0.009,0.0072,0.0035,0.0006,-0.0014,-0.0029,-0.0032,-0.0049,-0.0079,-0.0092,-0.0097,-0.004,-0.004,-0.004,-0.0101,0,0.0209,0.0246,0.0239,0.0276,0.0294,0.0271,0.0279,0.027,0.0254,0.0247,0.019,0.0177,0.0122,0.0112,0.0074,0.0011,-0.0021,0.0004,-0.0098,-0.0101,-0.0109,-0.01,-0.0068,-0.0119,-0.0104,-0.0105,-0.0105,0,0.0249,0.027,0.0313,0.0338,0.0344,0.0355,0.0371,0.0378,0.0358,0.0343,0.0313,0.0267,0.0222,0.0169,0.0068,0.0086,0.0011,-0.0046,-0.005,-0.0082,-0.0119,-0.0135,-0.0126,-0.0111,-0.0111,-0.011,-0.011,0,0.029,0.0325,0.0364,0.0371,0.0389,0.04,0.041,0.0406,0.0431,0.0408,0.0416,0.0344,0.0316,0.0212,0.0091,0.0079,-0.0025,-0.0058,-0.0141,-0.0143,-0.0145,-0.0147,-0.0133,-0.0133,-0.0132,-0.0132,-0.0132,0,0.0336,0.0367,0.0385,0.0405,0.0456,0.0447,0.0498,0.0495,0.0508,0.0549,0.0471,0.0481,0.0325,0.0245,0.0121,-0.0013,-0.0005,-0.013,-0.0158,-0.0125,-0.0124,-0.0142,-0.0142,-0.0135,-0.0134,-0.0134,-0.0133,0,0.0377,0.0386,0.0434,0.0461,0.0476,0.0513,0.0567,0.0607,0.0603,0.0653,0.065,0.0587,0.0485,0.0325,0.0161,0.0038,-0.0097,-0.015,-0.0099,-0.012,-0.0205,-0.0202,-0.0249,-0.025,-0.025,-0.0251,-0.0252,0,0.0401,0.043,0.0482,0.0519,0.0534,0.0588,0.0633,0.0654,0.0709,0.0726,0.0759,0.0675,0.064,0.0394,0.0166,-0.0052,-0.0092,-0.0179,-0.0201,-0.0193,-0.0217,-0.0212,-0.0208,-0.0184,-0.0184,-0.0184,-0.0184,0,0.0451,0.0465,0.0507,0.0583,0.0636,0.0709,0.0775,0.0833,0.0865,0.0903,0.0942,0.0913,0.0686,0.048,0.0172,0.0022,-0.0143,-0.0185,-0.0189,-0.0157,-0.0137,-0.0158,-0.0156,-0.0184,-0.0184,-0.0184,-0.0184,-0.0184,0.049,0.0528,0.0581,0.0656,0.0724,0.0815,0.0883,0.096,0.1052,0.1109,0.108,0.1037,0.0798,0.0417,0.0158,-0.0131,-0.0127,-0.0233,-0.0232,-0.0231,-0.0209,-0.0192,-0.0245,-0.0245,-0.0245,-0.0246,-0.0246,0,0.0539,0.058,0.0652,0.0739,0.0823,0.0848,0.0971,0.1043,0.1154,0.1189,0.1216,0.0999,0.0765,0.0476,0.0061,-0.0182,-0.02,-0.0267,-0.0232,-0.023,-0.0229,-0.0208,-0.0243,-0.0244,-0.0244,-0.0245,0,0,0.0566,0.0638,0.0672,0.0808,0.0871,0.0988,0.106,0.1163,0.122,0.1263,0.1233,0.1179,0.0841,0.0546,0.0222,-0.0017,-0.0074,-0.0067,-0.0042,0.0039,0.0043,-0.0182,-0.0143,0,0,0,0,0]}],[{"header":{"parameterUnit":"m.s-1","parameterCategory":2,"la1":30.2991,"la2":30.254,"lo1":-89.0895,"lo2":-89.0444,"dy":0.0017,"dx":0.0017,"nx":28,"ny":28,"refTime":"2024-10-07T09:00:00:Z","depth":"4","parameterNumber":2,"parameterNumberName":"U-component_of_CURRENTS"},"data":[0,0,0,0,0,0,0,0,0,0,0,0,0,0,0,0,0,0,0,0,0,0,0,0,0,0,0,0,0,0,0,0,0,0,0,0,0,0,0,0,0,0,0,0,0,0,0,0,0,0,0,0,0,0,0,0,0,0,0.1545,0.1545,0,0.1592,0.1593,0.1593,0.1637,0.1637,0.1638,0.1639,0.1695,0.1696,0.1697,0,0,0,0,0,0,0,0,0,0,0,0,0,0.1486,0.1487,0.1544,0.1545,0.1546,0.1592,0.1593,0.1593,0.1637,0.1637,0.1638,0.1639,0.1695,0.1696,0.1697,0,0,0,0,0,0,0,0,0,0,0,0,0,0.1519,0.1487,0.1544,0.1574,0.1577,0.1592,0.1593,0.1593,0.1636,0.1637,0.1638,0.1639,0.1694,0.1696,0.1697,0.1685,0,0,0.1701,0.1701,0,0,0,0,0,0,0,0,0.1517,0.1521,0.1569,0.1572,0.1576,0.1611,0.1593,0.1625,0.1636,0.1612,0.1639,0.164,0.1668,0.1671,0.1676,0.1688,0.169,0.1701,0.1702,0.1702,0.1703,0,0,0,0,0,0,0,0.1515,0.1519,0.1562,0.157,0.1574,0.1584,0.1589,0.1599,0.1633,0.1615,0.1618,0.1626,0.167,0.1674,0.1678,0.1691,0.1701,0.1702,0.1703,0.1703,0.1801,0.1803,0,0,0,0,0,0,0.1511,0.1517,0.156,0.1563,0.155,0.1584,0.159,0.1597,0.1633,0.164,0.1625,0.1627,0.1672,0.1676,0.168,0.1759,0.1702,0.1704,0.1704,0.1799,0.1801,0.1803,0,0,0,0,0,0,0.151,0.1514,0.1559,0.1542,0.1549,0.1584,0.1592,0.1598,0.1638,0.1641,0.1647,0.1663,0.1673,0.1678,0.1722,0.1759,0.1704,0.1705,0.1797,0.18,0.1802,0.186,0,0,0,0,0,0,0.1508,0.1513,0.1534,0.1542,0.155,0.159,0.1591,0.1598,0.1639,0.1644,0.1675,0.1679,0.1674,0.1721,0.1724,0.1759,0.1706,0.1795,0.1798,0.1801,0.1856,0.1864,0.1872,0,0,0,0,0,0.1505,0.1523,0.1535,0.1541,0.1571,0.1591,0.1596,0.1623,0.1641,0.1662,0.1688,0.168,0.1744,0.1723,0.1726,0.1763,0.1793,0.1797,0.1801,0.1852,0.1863,0.1872,0,0,0,0,0,0,0.151,0.1529,0.1542,0.1567,0.1589,0.1599,0.1627,0.1643,0.1679,0.1697,0.1699,0.1705,0.1759,0.1754,0.173,0.1803,0.1769,0.1774,0.1807,0.1817,0.1824,0.1828,0.1708,0,0,0,0,0,0.1519,0.1541,0.1557,0.1582,0.1596,0.1619,0.1638,0.1656,0.1681,0.17,0.1721,0.1747,0.1771,0.179,0.1807,0.1843,0.1844,0.1871,0.1879,0.1886,0.1893,0.1923,0.1934,0.1816,0.1816,0.1816,0,0,0.1528,0.1543,0.1557,0.1586,0.1607,0.1631,0.1634,0.1673,0.1703,0.1699,0.1759,0.1777,0.1788,0.1832,0.1855,0.1837,0.1922,0.1891,0.1896,0.1899,0.1929,0.194,0.195,0.1819,0.1819,0.1818,0,0,0.1545,0.1573,0.1594,0.1616,0.1654,0.1666,0.1686,0.1718,0.1748,0.1796,0.1806,0.1849,0.1884,0.19,0.191,0.1972,0.1964,0.1985,0.2027,0.2057,0.2067,0.2075,0.2097,0.2107,0.1988,0.1988,0.1988,0,0.156,0.1585,0.1605,0.163,0.1655,0.1686,0.1715,0.1745,0.1791,0.1819,0.1828,0.1902,0.1914,0.1963,0.199,0.199,0.2004,0.1987,0.2067,0.2075,0.2083,0.2103,0.2113,0.1991,0.1991,0.199,0.199,0,0.158,0.1615,0.1632,0.1673,0.1702,0.1737,0.1772,0.1816,0.1857,0.1882,0.1955,0.1978,0.2021,0.2036,0.2034,0.21,0.2092,0.2073,0.2039,0.2098,0.2116,0.2125,0.1996,0.1994,0.1993,0.1993,0,0,0.1571,0.1634,0.1644,0.167,0.1732,0.175,0.1813,0.1865,0.1913,0.1966,0.2026,0.2078,0.2102,0.2115,0.2126,0.2156,0.2225,0.2147,0.2147,0.2162,0.2297,0.2153,0.215,0.2225,0.2227,0.2228,0.2289,0,0.1585,0.1632,0.1666,0.1722,0.1747,0.18,0.1852,0.1909,0.1965,0.203,0.2072,0.2136,0.2128,0.2167,0.2196,0.2223,0.2253,0.2211,0.2243,0.2244,0.2104,0.2156,0.2234,0.2296,0.2298,0.23,0.2301,0,0.1586,0.1619,0.1674,0.1744,0.1763,0.1809,0.1898,0.195,0.2042,0.2091,0.2159,0.2196,0.2266,0.2247,0.2319,0.2296,0.2308,0.2317,0.2319,0.2168,0.2117,0.2225,0.2318,0.2317,0.2315,0.2314,0.2313,0,0.1547,0.1621,0.1667,0.1692,0.1777,0.1825,0.1881,0.1975,0.203,0.2143,0.2195,0.2272,0.2327,0.2358,0.2385,0.2367,0.2447,0.2417,0.2296,0.2287,0.2371,0.2362,0.2464,0.2464,0.2464,0.2464,0.2464,0,0.1526,0.1565,0.1659,0.1681,0.1747,0.1817,0.1901,0.1971,0.2078,0.2137,0.223,0.2278,0.2362,0.241,0.2417,0.2384,0.2475,0.2312,0.2294,0.2395,0.2388,0.2378,0.2368,0.2466,0.2465,0.2465,0.2465,0,0.1469,0.1533,0.1589,0.1691,0.173,0.1781,0.1906,0.1956,0.2073,0.2156,0.2199,0.2312,0.2368,0.2424,0.2482,0.2409,0.2403,0.2369,0.2488,0.2474,0.2215,0.2207,0.2234,0.223,0.2226,0.2222,0.222,0,0.1439,0.1465,0.1584,0.1621,0.1676,0.1763,0.1818,0.1945,0.1994,0.2147,0.2168,0.2279,0.2332,0.2294,0.2368,0.2372,0.2341,0.2323,0.2253,0.2213,0.2193,0.2191,0.2188,0.2214,0.2213,0.2212,0.2211,0,0.1381,0.1442,0.1487,0.1567,0.1634,0.1691,0.178,0.1801,0.1933,0.2058,0.2082,0.2108,0.2166,0.2197,0.2222,0.2218,0.2324,0.2282,0.2289,0.2223,0.2188,0.2172,0.2174,0.2197,0.2199,0.22,0.2201,0,0.1344,0.1361,0.1433,0.1489,0.1566,0.1587,0.1646,0.1691,0.1752,0.1911,0.1915,0.2025,0.2139,0.2119,0.214,0.2129,0.2089,0.201,0.203,0.2046,0.1954,0.1881,0.1786,0,0,0,0,0,0.1294,0.1299,0.1346,0.139,0.1459,0.1504,0.1602,0.1659,0.1783,0.175,0.1825,0.1865,0.189,0.1954,0.1903,0.2066,0.2106,0.1998,0.2026,0.2123,0.2139,0.2048,0,0,0,0,0,0,0.1258,0.1299,0.1308,0.1293,0.1304,0.1362,0.1417,0.1502,0.1489,0.1623,0.1646,0.1752,0.1809,0.1897,0.1867,0.1886,0.1865,0.2076,0.2071,0.2114,0.2128,0.2141,0.2053,0,0,0,0,0]},{"header":{"parameterUnit":"m.s-1","parameterCategory":2,"la1":30.2991,"la2":30.254,"lo1":-89.0895,"lo2":-89.0444,"dy":0.0017,"dx":0.0017,"nx":28,"ny":28,"refTime":"2024-10-07T09:00:00:Z","depth":"4","parameterNumber":3,"parameterNumberName":"V-component_of_CURRENTS"},"data":[0,0,0,0,0,0,0,0,0,0,0,0,0,0,0,0,0,0,0,0,0,0,0,0,0,0,0,0,0,0,0,0,0,0,0,0,0,0,0,0,0,0,0,0,0,0,0,0,0,0,0,0,0,0,0,0,0,0,0.0174,0.0174,0,0.0142,0.0142,0.0141,0.0117,0.0117,0.0116,0.0116,0.0074,0.0072,0.0071,0,0,0,0,0,0,0,0,0,0,0,0,0,0.0187,0.0186,0.0174,0.0174,0.0174,0.0142,0.0142,0.0141,0.0117,0.0117,0.0116,0.0116,0.0074,0.0073,0.0071,0,0,0,0,0,0,0,0,0,0,0,0,0,0.0169,0.0186,0.0174,0.0159,0.0157,0.0142,0.0142,0.0141,0.0117,0.0117,0.0116,0.0116,0.0074,0.0073,0.0071,0.0065,0,0,0.0066,0.0066,0,0,0,0,0,0,0,0,0.017,0.0169,0.0161,0.016,0.0158,0.0134,0.013,0.0115,0.0117,0.0131,0.0116,0.0116,0.0094,0.0091,0.0083,0.0063,0.0061,0.0066,0.0065,0.0065,0.0064,0,0,0,0,0,0,0,0.0172,0.017,0.016,0.0161,0.0159,0.0144,0.0141,0.0127,0.0112,0.0129,0.0128,0.0127,0.0093,0.0085,0.0082,0.006,0.0066,0.0065,0.0064,0.0063,0.0032,0.0032,0,0,0,0,0,0,0.018,0.0171,0.0161,0.0159,0.0165,0.0144,0.0141,0.0141,0.0113,0.0109,0.0127,0.0126,0.0088,0.0084,0.008,0.0081,0.0065,0.0063,0.0062,0.0031,0.0032,0.0032,0,0,0,0,0,0,0.018,0.0179,0.0162,0.0165,0.0162,0.0144,0.0144,0.0141,0.0135,0.0111,0.0106,0.0125,0.0087,0.0083,0.0073,0.0078,0.0062,0.0061,0.0031,0.0032,0.0032,0.0075,0,0,0,0,0,0,0.0181,0.018,0.0184,0.0166,0.0163,0.0158,0.0144,0.014,0.0135,0.0133,0.0108,0.0104,0.0087,0.0075,0.0071,0.0076,0.006,0.0031,0.0031,0.0032,0.0073,0.0076,0.0079,0,0,0,0,0,0.0181,0.0188,0.0184,0.0183,0.0168,0.0159,0.0155,0.0141,0.0135,0.0134,0.0119,0.0105,0.0073,0.0074,0.0069,0.0074,0.0031,0.0031,0.0032,0.0072,0.0076,0.0079,0,0,0,0,0,0,0.0194,0.0186,0.0181,0.0185,0.0175,0.0155,0.0155,0.0145,0.0132,0.0132,0.0108,0.0102,0.0094,0.0078,0.0079,0.0064,0.0049,0.0048,0.0081,0.0085,0.0087,0.01,0.0058,0,0,0,0,0,0.02,0.0204,0.0191,0.0195,0.0191,0.0174,0.0169,0.016,0.0146,0.014,0.0122,0.0105,0.0091,0.0084,0.0067,0.0061,0.004,0.006,0.0063,0.0065,0.0072,0.0042,0.0043,0.0032,0.0032,0.0032,0,0,0.0207,0.0203,0.0205,0.0198,0.0189,0.0192,0.017,0.0167,0.0169,0.0138,0.0135,0.0114,0.0091,0.0084,0.0079,0.0072,0.0056,0.0066,0.0068,0.0073,0.0043,0.0044,0.0045,0.0033,0.0033,0.0033,0,0,0.0224,0.0219,0.0228,0.0223,0.0216,0.0207,0.0208,0.0191,0.0183,0.0177,0.0156,0.0141,0.0118,0.0103,0.0093,0.0102,0.0072,0.0095,0.0121,0.0093,0.0094,0.0094,0.0067,0.0065,0.0097,0.0097,0.0097,0,0.0232,0.0243,0.0229,0.0236,0.0239,0.0217,0.0229,0.0218,0.0199,0.0198,0.0182,0.0149,0.0128,0.0121,0.0124,0.011,0.0088,0.0112,0.0097,0.0097,0.0097,0.0069,0.0066,0.0099,0.0099,0.0099,0.0099,0,0.0254,0.0264,0.0269,0.0275,0.0274,0.0281,0.0267,0.0263,0.0251,0.0239,0.0225,0.0191,0.0173,0.0161,0.0146,0.0136,0.012,0.0104,0.0091,0.0101,0.007,0.0066,0.0102,0.0101,0.0101,0.01,0,0,0.0273,0.0284,0.0288,0.0301,0.0298,0.0302,0.0306,0.0306,0.0316,0.0283,0.0287,0.0253,0.0232,0.0219,0.0191,0.0165,0.0143,0.0139,0.0136,0.0117,0.008,0.0069,0.0063,0.0124,0.0123,0.0123,0.0059,0,0.0297,0.0325,0.0323,0.0353,0.0367,0.0354,0.0363,0.0358,0.0349,0.0344,0.0302,0.0294,0.0255,0.0248,0.0215,0.0165,0.0134,0.0161,0.0069,0.0066,0.0059,0.0059,0.0122,0.0056,0.0055,0.0054,0.0054,0,0.0321,0.0339,0.0373,0.0398,0.0403,0.0416,0.0433,0.0441,0.0427,0.0417,0.0395,0.0361,0.0324,0.0285,0.0197,0.0216,0.0154,0.0106,0.0102,0.0076,0.0048,0.0043,0.0046,0.0047,0.0047,0.0048,0.0048,0,0.0345,0.0376,0.0408,0.0416,0.0436,0.045,0.0463,0.0464,0.0484,0.0468,0.0474,0.0416,0.0393,0.0307,0.0207,0.0202,0.0103,0.0083,0.0011,0.0009,0.0019,0.0019,0.0016,0.0016,0.0016,0.0016,0.0016,0,0.0371,0.0398,0.0424,0.044,0.0486,0.0486,0.0531,0.0532,0.0545,0.0574,0.0518,0.0515,0.0397,0.0325,0.0224,0.0109,0.0114,0.0017,-0.0007,0.0038,0.0041,0.0016,0.0017,0.0014,0.0014,0.0015,0.0015,0,0.0391,0.0406,0.0448,0.048,0.0499,0.0531,0.0586,0.0618,0.062,0.0653,0.0651,0.0593,0.0498,0.0372,0.0232,0.0141,0.0026,-0.0019,0.0044,0.0024,-0.0055,-0.0051,-0.0103,-0.0104,-0.0105,-0.0106,-0.0106,0,0.0402,0.0426,0.0482,0.0516,0.0535,0.0588,0.0628,0.0655,0.0692,0.07,0.0715,0.0639,0.0579,0.038,0.024,0.0044,0.0011,-0.0055,-0.0062,-0.0049,-0.0067,-0.0062,-0.0057,-0.0107,-0.0108,-0.0108,-0.0108,0,0.0426,0.0448,0.0483,0.0553,0.0605,0.0668,0.0724,0.0756,0.0784,0.0789,0.0767,0.066,0.0551,0.0388,0.0235,0.0093,-0.0014,-0.0063,-0.0063,-0.007,-0.0054,-0.0071,-0.0065,-0.0111,-0.011,-0.011,-0.011,0,0.0447,0.0477,0.0526,0.0589,0.0658,0.0721,0.0751,0.0787,0.0821,0.0822,0.0813,0.069,0.0622,0.0413,0.0275,0.0133,0.0089,0.0032,0.0026,0.0027,0.0079,0.0119,0.0098,0,0,0,0,0,0.0466,0.0501,0.0559,0.0625,0.0693,0.0736,0.0805,0.0827,0.0852,0.0844,0.083,0.0726,0.052,0.0437,0.0294,0.0247,0.0057,0.0072,-0.0013,-0.0125,-0.0122,-0.0086,0,0,0,0,0,0,0.0477,0.0532,0.0558,0.0645,0.0695,0.0775,0.082,0.0839,0.0834,0.0834,0.0733,0.068,0.0487,0.0606,0.0289,0.0247,0.0169,-0.002,-0.0024,-0.0127,-0.0124,-0.0122,-0.0083,0,0,0,0,0]}]]